SUR4729 ESNO-LSZS

Flight info

Callsign SUR4729
Flight time 2h 25m
Altitude 36000
Route GAJPA DCT UMLAX DCT PELIT DCT NEMBA N33 DEKIK DCT SIMEG/N0429F390 M736 BAKDO/N0381F290 M736 MAG Z207 ALOSO/N0437F400 DCT ERNAS DCT TIRUL
Aircraft B736/M-SDE2E3FGHIRWXY/LB1

Departure

Time 2026-04-22 00:15
Airport Örnsköldsvik Airport (ESNO)

Arrival

Time 2026-04-22 02:41
Airport Engadin Airport (LSZS)
Time Latitude Longitude Altitude Speed Heading
2026-04-21 23:54 63.40884 18.99830 331 ft 0 kts 209°
2026-04-22 00:03 63.40883 18.99828 331 ft 0 kts 210°
2026-04-22 00:03 63.40880 18.99793 331 ft 1 kts 301°
2026-04-22 00:03 63.40882 18.99786 331 ft 0 kts 301°
2026-04-22 00:08 63.40895 18.99733 331 ft 10 kts 298°
2026-04-22 00:08 63.40926 18.99606 331 ft 7 kts 298°
2026-04-22 00:08 63.40949 18.99513 332 ft 5 kts 299°
2026-04-22 00:08 63.40963 18.99460 332 ft 2 kts 301°
2026-04-22 00:09 63.40978 18.99402 333 ft 5 kts 300°
2026-04-22 00:09 63.40993 18.99345 334 ft 3 kts 302°
2026-04-22 00:09 63.41003 18.99313 334 ft 1 kts 305°
2026-04-22 00:09 63.41012 18.99284 335 ft 2 kts 305°
2026-04-22 00:10 63.41025 18.99245 336 ft 4 kts 305°
2026-04-22 00:10 63.41050 18.99155 337 ft 7 kts 291°
2026-04-22 00:10 63.41044 18.99061 337 ft 5 kts 230°
2026-04-22 00:10 63.41003 18.98994 337 ft 8 kts 213°
2026-04-22 00:11 63.40993 18.98979 337 ft 1 kts 212°
2026-04-22 00:11 63.40950 18.98925 337 ft 11 kts 200°
2026-04-22 00:11 63.40879 18.98992 337 ft 13 kts 129°
2026-04-22 00:11 63.40825 18.99184 337 ft 14 kts 120°
2026-04-22 00:12 63.40760 18.99424 334 ft 20 kts 122°
2026-04-22 00:12 63.40689 18.99680 333 ft 19 kts 122°
2026-04-22 00:12 63.40616 18.99945 330 ft 20 kts 121°
2026-04-22 00:12 63.40549 19.00182 325 ft 16 kts 124°
2026-04-22 00:13 63.40492 19.00350 323 ft 11 kts 130°
2026-04-22 00:13 63.40498 19.00396 323 ft 4 kts 323°
2026-04-22 00:13 63.40518 19.00318 324 ft 10 kts 292°
2026-04-22 00:13 63.40530 19.00260 325 ft 0 kts 298°
2026-04-22 00:14 63.40530 19.00259 325 ft 0 kts 298°
2026-04-22 00:14 63.40558 19.00152 326 ft 24 kts 301°
2026-04-22 00:14 63.40794 18.99297 335 ft 105 kts 301°
2026-04-22 00:15 63.41291 18.97506 731 ft 148 kts 304°
2026-04-22 00:15 63.41892 18.95794 1646 ft 144 kts 311°
2026-04-22 00:15 63.42429 18.93937 2344 ft 147 kts 300°
2026-04-22 00:15 63.42627 18.91558 2708 ft 175 kts 273°
2026-04-22 00:16 63.42106 18.88759 2844 ft 224 kts 238°
2026-04-22 00:16 63.40866 18.86509 3413 ft 241 kts 220°
2026-04-22 00:16 63.39458 18.84274 3817 ft 256 kts 227°
2026-04-22 00:16 63.38220 18.81437 4658 ft 252 kts 234°
2026-04-22 00:17 63.37015 18.78576 5439 ft 255 kts 231°
2026-04-22 00:17 63.35788 18.75809 6173 ft 259 kts 231°
2026-04-22 00:17 63.34484 18.72923 6791 ft 269 kts 229°
2026-04-22 00:17 63.33129 18.69995 7332 ft 279 kts 229°
2026-04-22 00:18 63.31750 18.67091 8251 ft 274 kts 228°
2026-04-22 00:18 63.30328 18.64164 8761 ft 286 kts 227°
2026-04-22 00:18 63.28878 18.61200 9548 ft 284 kts 228°
2026-04-22 00:18 63.27465 18.58257 10433 ft 278 kts 229°
2026-04-22 00:19 63.26079 18.55282 10971 ft 286 kts 230°
2026-04-22 00:19 63.24621 18.52071 11324 ft 301 kts 230°
2026-04-22 00:19 63.23114 18.48830 11938 ft 307 kts 229°
2026-04-22 00:19 63.21568 18.45579 12562 ft 312 kts 229°
2026-04-22 00:20 63.19987 18.42284 13188 ft 318 kts 228°
2026-04-22 00:20 63.18371 18.38927 13809 ft 323 kts 229°
2026-04-22 00:20 63.16731 18.35520 14427 ft 328 kts 229°
2026-04-22 00:20 63.15039 18.32006 15064 ft 334 kts 227°
2026-04-22 00:21 63.13349 18.28502 15587 ft 342 kts 227°
2026-04-22 00:21 63.11595 18.24866 16090 ft 352 kts 227°
2026-04-22 00:21 63.09788 18.21129 16601 ft 361 kts 227°
2026-04-22 00:21 63.07925 18.17287 17107 ft 370 kts 227°
2026-04-22 00:22 63.06029 18.13379 17603 ft 378 kts 227°
2026-04-22 00:22 63.04107 18.09427 18103 ft 386 kts 227°
2026-04-22 00:22 63.02070 18.05446 18612 ft 395 kts 222°
2026-04-22 00:22 62.99755 18.02077 19111 ft 404 kts 210°
2026-04-22 00:23 62.97125 17.99841 19610 ft 412 kts 199°
2026-04-22 00:23 62.94384 17.98251 20103 ft 416 kts 194°
2026-04-22 00:23 62.91538 17.96861 20605 ft 422 kts 193°
2026-04-22 00:23 62.88652 17.95527 21099 ft 425 kts 192°
2026-04-22 00:24 62.85786 17.94205 21597 ft 427 kts 192°
2026-04-22 00:24 62.82885 17.92844 22096 ft 432 kts 192°
2026-04-22 00:24 62.79926 17.91431 22599 ft 436 kts 192°
2026-04-22 00:24 62.76963 17.89996 23086 ft 439 kts 192°
2026-04-22 00:25 62.74021 17.88557 23605 ft 442 kts 192°
2026-04-22 00:25 62.71000 17.87073 24112 ft 445 kts 192°
2026-04-22 00:25 62.67997 17.85594 24546 ft 451 kts 192°
2026-04-22 00:25 62.64899 17.84068 24950 ft 458 kts 192°
2026-04-22 00:26 62.61819 17.82551 25341 ft 464 kts 192°
2026-04-22 00:26 62.58654 17.80993 25735 ft 470 kts 191°
2026-04-22 00:26 62.55465 17.79429 26133 ft 476 kts 191°
2026-04-22 00:26 62.52239 17.77848 26539 ft 481 kts 191°
2026-04-22 00:27 62.48975 17.76251 26945 ft 487 kts 191°
2026-04-22 00:27 62.45628 17.74619 27340 ft 492 kts 191°
2026-04-22 00:27 62.42307 17.72997 27739 ft 496 kts 191°
2026-04-22 00:27 62.38894 17.71336 28147 ft 501 kts 191°
2026-04-22 00:28 62.35523 17.69702 28553 ft 505 kts 191°
2026-04-22 00:28 62.32061 17.68029 28948 ft 508 kts 190°
2026-04-22 00:28 62.28610 17.66364 29360 ft 511 kts 191°
2026-04-22 00:28 62.25146 17.64696 29761 ft 509 kts 190°
2026-04-22 00:29 62.21724 17.63051 30163 ft 509 kts 190°
2026-04-22 00:29 62.18278 17.61398 30570 ft 510 kts 190°
2026-04-22 00:29 62.14825 17.59746 30962 ft 508 kts 190°
2026-04-22 00:29 62.11405 17.58115 31342 ft 510 kts 190°
2026-04-22 00:30 62.07945 17.56471 31725 ft 509 kts 190°
2026-04-22 00:30 62.04505 17.54842 32106 ft 510 kts 190°
2026-04-22 00:30 62.01066 17.53213 32482 ft 508 kts 189°
2026-04-22 00:30 61.97643 17.51594 32856 ft 509 kts 189°
2026-04-22 00:31 61.94170 17.49956 33236 ft 508 kts 189°
2026-04-22 00:31 61.90752 17.48350 33609 ft 509 kts 189°
2026-04-22 00:31 61.87314 17.46738 33988 ft 509 kts 189°
2026-04-22 00:31 61.83870 17.45126 34365 ft 509 kts 189°
2026-04-22 00:32 61.80442 17.43527 34743 ft 508 kts 189°
2026-04-22 00:32 61.76982 17.41915 35076 ft 508 kts 189°
2026-04-22 00:32 61.73571 17.40328 35415 ft 506 kts 189°
2026-04-22 00:32 61.70136 17.38731 35748 ft 503 kts 189°
2026-04-22 00:33 61.66738 17.37156 36059 ft 502 kts 189°
2026-04-22 00:33 61.59965 17.34034 36168 ft 500 kts 188°
2026-04-22 00:34 61.53185 17.30922 36176 ft 498 kts 188°
2026-04-22 00:34 61.46437 17.27838 36177 ft 497 kts 188°
2026-04-22 00:35 61.39753 17.24799 36174 ft 496 kts 188°
2026-04-22 00:35 61.33030 17.21755 36181 ft 496 kts 188°
2026-04-22 00:36 61.26271 17.18706 36169 ft 498 kts 188°
2026-04-22 00:36 61.19549 17.15686 36173 ft 496 kts 188°
2026-04-22 00:37 61.12865 17.12695 36177 ft 495 kts 188°
2026-04-22 00:37 61.06163 17.09711 36178 ft 494 kts 188°
2026-04-22 00:38 60.99515 17.06419 36180 ft 497 kts 193°
2026-04-22 00:38 60.92987 17.01750 36191 ft 498 kts 198°
2026-04-22 00:39 60.86569 16.96491 36185 ft 497 kts 200°
2026-04-22 00:39 60.80208 16.91188 36179 ft 497 kts 199°
2026-04-22 00:40 60.73838 16.85954 36187 ft 497 kts 199°
2026-04-22 00:40 60.67466 16.80804 36198 ft 496 kts 199°
2026-04-22 00:41 60.61074 16.75697 36194 ft 496 kts 199°
2026-04-22 00:41 60.54636 16.70595 36195 ft 496 kts 199°
2026-04-22 00:42 60.48270 16.65574 36204 ft 494 kts 199°
2026-04-22 00:42 60.41869 16.60548 36204 ft 493 kts 199°
2026-04-22 00:43 60.35504 16.55574 36205 ft 494 kts 199°
2026-04-22 00:43 60.29142 16.50621 36210 ft 493 kts 199°
2026-04-22 00:44 60.22773 16.45684 36212 ft 492 kts 199°
2026-04-22 00:44 60.16395 16.40758 36210 ft 492 kts 200°
2026-04-22 00:45 60.10030 16.35862 36215 ft 492 kts 200°
2026-04-22 00:45 60.03708 16.31019 36220 ft 491 kts 199°
2026-04-22 00:46 59.97336 16.26161 36220 ft 490 kts 199°
2026-04-22 00:46 59.90984 16.21339 36220 ft 490 kts 199°
2026-04-22 00:47 59.84684 16.16574 36222 ft 490 kts 199°
2026-04-22 00:47 59.78318 16.11780 36221 ft 490 kts 199°
2026-04-22 00:48 59.71997 16.07039 36214 ft 490 kts 199°
2026-04-22 00:48 59.65633 16.02284 36209 ft 490 kts 199°
2026-04-22 00:49 59.59291 15.97567 36210 ft 490 kts 199°
2026-04-22 00:49 59.52925 15.92851 36223 ft 490 kts 199°
2026-04-22 00:50 59.46585 15.88172 36223 ft 488 kts 199°
2026-04-22 00:50 59.40261 15.83524 36226 ft 488 kts 199°
2026-04-22 00:51 59.33926 15.78886 36224 ft 488 kts 199°
2026-04-22 00:51 59.27579 15.74260 36222 ft 488 kts 199°
2026-04-22 00:52 59.21251 15.69663 36222 ft 488 kts 199°
2026-04-22 00:52 59.14881 15.65143 36219 ft 487 kts 198°
2026-04-22 00:53 59.08527 15.60822 36219 ft 487 kts 198°
2026-04-22 00:53 59.02173 15.56550 36219 ft 487 kts 198°
2026-04-22 00:54 58.95829 15.52288 36219 ft 487 kts 198°
2026-04-22 00:54 58.89431 15.47990 36229 ft 487 kts 198°
2026-04-22 00:55 58.83087 15.43734 36229 ft 486 kts 198°
2026-04-22 00:55 58.73535 15.37348 36225 ft 486 kts 198°
2026-04-22 00:56 58.67200 15.33135 36227 ft 486 kts 197°
2026-04-22 00:56 58.60863 15.28938 36230 ft 485 kts 197°
2026-04-22 00:57 58.54490 15.24731 36235 ft 484 kts 197°
2026-04-22 00:57 58.48194 15.20590 36235 ft 483 kts 197°
2026-04-22 00:58 58.41842 15.16429 36240 ft 483 kts 197°
2026-04-22 00:58 58.35533 15.12314 36238 ft 484 kts 197°
2026-04-22 00:59 58.29188 15.08192 36238 ft 485 kts 197°
2026-04-22 00:59 58.22817 15.04066 36236 ft 483 kts 197°
2026-04-22 01:00 58.16535 15.00013 36236 ft 481 kts 197°
2026-04-22 01:00 58.10210 14.95948 36235 ft 481 kts 197°
2026-04-22 01:01 58.03872 14.91889 36233 ft 481 kts 197°
2026-04-22 01:01 57.97551 14.87857 36236 ft 483 kts 197°
2026-04-22 01:02 57.91224 14.83837 36230 ft 482 kts 197°
2026-04-22 01:02 57.84869 14.79814 36231 ft 481 kts 197°
2026-04-22 01:03 57.78558 14.75833 36234 ft 482 kts 197°
2026-04-22 01:03 57.72236 14.71860 36234 ft 483 kts 197°
2026-04-22 01:04 57.65899 14.67893 36232 ft 483 kts 197°
2026-04-22 01:04 57.62706 14.65900 36528 ft 484 kts 197°
2026-04-22 01:04 57.59512 14.63910 36323 ft 483 kts 197°
2026-04-22 01:05 57.53233 14.60006 36243 ft 480 kts 197°
2026-04-22 01:05 57.46890 14.56080 36237 ft 483 kts 197°
2026-04-22 01:06 57.40514 14.52145 36239 ft 482 kts 197°
2026-04-22 01:06 57.34196 14.48263 36241 ft 483 kts 197°
2026-04-22 01:07 57.27819 14.44358 36240 ft 483 kts 197°
2026-04-22 01:07 57.21457 14.40476 36243 ft 484 kts 197°
2026-04-22 01:08 57.15035 14.37077 36247 ft 483 kts 190°
2026-04-22 01:08 57.08452 14.35356 36250 ft 481 kts 183°
2026-04-22 01:09 57.01831 14.34408 36249 ft 478 kts 181°
2026-04-22 01:09 56.95186 14.33555 36249 ft 480 kts 181°
2026-04-22 01:10 56.88540 14.32625 36249 ft 481 kts 181°
2026-04-22 01:10 56.81889 14.31627 36250 ft 482 kts 182°
2026-04-22 01:11 56.75240 14.30085 36251 ft 484 kts 189°
2026-04-22 01:11 56.68771 14.27040 36251 ft 484 kts 195°
2026-04-22 01:12 56.62355 14.23382 36254 ft 485 kts 196°
2026-04-22 01:12 56.55953 14.19685 36254 ft 485 kts 195°
2026-04-22 01:13 56.49508 14.16038 36257 ft 485 kts 195°
2026-04-22 01:13 56.43085 14.12474 36257 ft 485 kts 195°
2026-04-22 01:14 56.36658 14.08958 36258 ft 485 kts 195°
2026-04-22 01:14 56.30249 14.05479 36262 ft 485 kts 195°
2026-04-22 01:15 56.23792 14.01991 36262 ft 484 kts 195°
2026-04-22 01:15 56.17342 13.98521 36265 ft 485 kts 195°
2026-04-22 01:16 56.10893 13.95063 36260 ft 485 kts 195°
2026-04-22 01:16 56.04496 13.91645 36265 ft 486 kts 195°
2026-04-22 01:17 55.98017 13.88194 36271 ft 485 kts 195°
2026-04-22 01:17 55.91576 13.84777 36276 ft 484 kts 195°
2026-04-22 01:18 55.85144 13.81376 36273 ft 484 kts 195°
2026-04-22 01:18 55.78730 13.77997 36279 ft 484 kts 195°
2026-04-22 01:19 55.72273 13.74605 36278 ft 484 kts 195°
2026-04-22 01:19 55.65869 13.71252 36278 ft 483 kts 195°
2026-04-22 01:20 55.59473 13.67915 36282 ft 483 kts 195°
2026-04-22 01:20 55.53025 13.64565 36286 ft 483 kts 195°
2026-04-22 01:21 55.46603 13.61237 36285 ft 483 kts 195°
2026-04-22 01:21 55.40192 13.57927 36289 ft 483 kts 195°
2026-04-22 01:22 55.33770 13.54624 36290 ft 483 kts 195°
2026-04-22 01:22 55.27338 13.51326 36290 ft 483 kts 195°
2026-04-22 01:23 55.20894 13.48315 36291 ft 481 kts 191°
2026-04-22 01:23 55.14339 13.46046 36293 ft 481 kts 188°
2026-04-22 01:24 55.07769 13.43958 36287 ft 480 kts 188°
2026-04-22 01:24 55.01224 13.41833 36290 ft 480 kts 189°
2026-04-22 01:25 54.94696 13.39651 36288 ft 480 kts 189°
2026-04-22 01:25 54.88180 13.37099 36296 ft 482 kts 194°
2026-04-22 01:26 54.81795 13.33659 36297 ft 482 kts 196°
2026-04-22 01:26 54.75461 13.30017 36291 ft 483 kts 196°
2026-04-22 01:27 54.69115 13.26417 36292 ft 481 kts 196°
2026-04-22 01:27 54.62730 13.22875 36300 ft 483 kts 195°
2026-04-22 01:28 54.56347 13.19389 36304 ft 483 kts 195°
2026-04-22 01:28 54.49960 13.15937 36306 ft 481 kts 195°
2026-04-22 01:29 54.43617 13.12545 36316 ft 481 kts 195°
2026-04-22 01:29 54.37242 13.09317 36320 ft 481 kts 194°
2026-04-22 01:30 54.30782 13.06135 36323 ft 481 kts 194°
2026-04-22 01:30 54.24389 13.02993 36323 ft 481 kts 194°
2026-04-22 01:31 54.17998 12.99847 36327 ft 480 kts 194°
2026-04-22 01:31 54.11619 12.96624 36319 ft 481 kts 197°
2026-04-22 01:32 54.05423 12.92486 36315 ft 481 kts 202°
2026-04-22 01:32 53.99289 12.87849 36319 ft 482 kts 202°
2026-04-22 01:33 53.93190 12.83220 36318 ft 482 kts 202°
2026-04-22 01:33 53.87049 12.78640 36318 ft 483 kts 202°
2026-04-22 01:34 53.80913 12.74137 36322 ft 483 kts 202°
2026-04-22 01:34 53.74761 12.69669 36323 ft 482 kts 202°
2026-04-22 01:35 53.68642 12.65248 36318 ft 481 kts 202°
2026-04-22 01:35 53.62524 12.60843 36320 ft 482 kts 202°
2026-04-22 01:36 53.56358 12.56419 36323 ft 482 kts 202°
2026-04-22 01:36 53.50211 12.52023 36321 ft 481 kts 202°
2026-04-22 01:37 53.44077 12.47650 36322 ft 481 kts 202°
2026-04-22 01:37 53.37919 12.43273 36322 ft 481 kts 202°
2026-04-22 01:38 53.31792 12.38933 36317 ft 481 kts 202°
2026-04-22 01:38 53.25614 12.34570 36316 ft 481 kts 201°
2026-04-22 01:39 53.19485 12.30255 36317 ft 481 kts 201°
2026-04-22 01:39 53.13333 12.25937 36317 ft 480 kts 201°
2026-04-22 01:40 53.07198 12.21645 36324 ft 480 kts 201°
2026-04-22 01:40 53.01067 12.17369 36328 ft 480 kts 201°
2026-04-22 01:41 52.94926 12.13097 36329 ft 480 kts 201°
2026-04-22 01:41 52.88867 12.08518 36329 ft 480 kts 204°
2026-04-22 01:42 52.82884 12.03649 36330 ft 481 kts 205°
2026-04-22 01:42 52.76894 11.98816 36327 ft 480 kts 203°
2026-04-22 01:43 52.70723 11.94657 36331 ft 479 kts 199°
2026-04-22 01:43 52.64414 11.91183 36331 ft 477 kts 191°
2026-04-22 01:44 52.57917 11.89331 36326 ft 475 kts 185°
2026-04-22 01:44 52.51407 11.88171 36323 ft 473 kts 183°
2026-04-22 01:45 52.44843 11.87133 36328 ft 474 kts 183°
2026-04-22 01:45 52.38323 11.86077 36321 ft 473 kts 183°
2026-04-22 01:46 52.31803 11.84985 36323 ft 474 kts 183°
2026-04-22 01:46 52.25237 11.83863 36320 ft 474 kts 184°
2026-04-22 01:47 52.18687 11.82735 36321 ft 474 kts 184°
2026-04-22 01:47 52.12171 11.81614 36310 ft 473 kts 183°
2026-04-22 01:48 52.05659 11.80498 36316 ft 474 kts 183°
2026-04-22 01:48 51.99100 11.79910 36325 ft 470 kts 175°
2026-04-22 01:49 51.92684 11.81103 36331 ft 467 kts 167°
2026-04-22 01:49 51.86350 11.83153 36320 ft 467 kts 167°
2026-04-22 01:50 51.79880 11.83822 36324 ft 472 kts 179°
2026-04-22 01:50 51.73328 11.83015 36311 ft 474 kts 183°
2026-04-22 01:51 51.66827 11.81954 36310 ft 474 kts 183°
2026-04-22 01:51 51.60310 11.80964 36312 ft 473 kts 183°
2026-04-22 01:52 51.53821 11.80075 36299 ft 473 kts 182°
2026-04-22 01:52 51.47290 11.79242 36304 ft 473 kts 182°
2026-04-22 01:53 51.40780 11.78439 36305 ft 473 kts 182°
2026-04-22 01:53 51.34249 11.77649 36298 ft 473 kts 182°
2026-04-22 01:54 51.27681 11.76867 36308 ft 473 kts 182°
2026-04-22 01:54 51.21140 11.76091 36299 ft 473 kts 182°
2026-04-22 01:55 51.14621 11.75320 36298 ft 473 kts 182°
2026-04-22 01:55 51.08086 11.74549 36295 ft 473 kts 182°
2026-04-22 01:56 51.01531 11.73778 36296 ft 474 kts 182°
2026-04-22 01:56 50.94954 11.73005 36293 ft 473 kts 182°
2026-04-22 01:57 50.88420 11.72240 36286 ft 474 kts 182°
2026-04-22 01:57 50.81910 11.71481 36281 ft 473 kts 182°
2026-04-22 01:58 50.75325 11.70714 36272 ft 474 kts 183°
2026-04-22 01:58 50.68780 11.69854 36273 ft 474 kts 186°
2026-04-22 01:59 50.62310 11.68284 36260 ft 475 kts 189°
2026-04-22 01:59 50.55821 11.66419 36260 ft 475 kts 189°
2026-04-22 02:00 50.49361 11.64574 36252 ft 475 kts 189°
2026-04-22 02:00 50.42867 11.62773 36254 ft 475 kts 189°
2026-04-22 02:01 50.36372 11.61015 36251 ft 474 kts 189°
2026-04-22 02:01 50.29932 11.59296 36249 ft 473 kts 189°
2026-04-22 02:02 50.23469 11.57586 36247 ft 473 kts 189°
2026-04-22 02:02 50.16968 11.55872 36249 ft 474 kts 189°
2026-04-22 02:03 50.10486 11.54170 36254 ft 474 kts 189°
2026-04-22 02:03 50.04004 11.52471 36261 ft 474 kts 189°
2026-04-22 02:04 49.94321 11.49942 36276 ft 473 kts 189°
2026-04-22 02:05 49.87853 11.48259 36272 ft 472 kts 190°
2026-04-22 02:05 49.81389 11.46581 36262 ft 474 kts 190°
2026-04-22 02:06 49.74916 11.44905 36260 ft 475 kts 190°
2026-04-22 02:06 49.68430 11.43231 36254 ft 474 kts 190°
2026-04-22 02:07 49.61952 11.41563 36258 ft 474 kts 190°
2026-04-22 02:07 49.55500 11.39906 36259 ft 474 kts 190°
2026-04-22 02:08 49.48999 11.38241 36259 ft 474 kts 190°
2026-04-22 02:08 49.42552 11.36596 36256 ft 474 kts 190°
2026-04-22 02:09 49.36086 11.34948 36248 ft 474 kts 189°
2026-04-22 02:09 49.29670 11.33319 36245 ft 474 kts 189°
2026-04-22 02:10 49.23161 11.31671 36239 ft 473 kts 189°
2026-04-22 02:10 49.16695 11.30036 36234 ft 473 kts 190°
2026-04-22 02:11 49.10255 11.28413 36233 ft 474 kts 190°
2026-04-22 02:11 49.03786 11.26788 36229 ft 472 kts 190°
2026-04-22 02:12 48.97294 11.25160 36226 ft 473 kts 190°
2026-04-22 02:12 48.90859 11.23550 36226 ft 473 kts 190°
2026-04-22 02:13 48.84414 11.21928 36226 ft 472 kts 191°
2026-04-22 02:13 48.78012 11.19729 36224 ft 473 kts 196°
2026-04-22 02:14 48.71706 11.17128 36225 ft 473 kts 197°
2026-04-22 02:14 48.65401 11.14494 36222 ft 473 kts 197°
2026-04-22 02:15 48.59040 11.11889 36220 ft 473 kts 197°
2026-04-22 02:15 48.52738 11.09357 36210 ft 472 kts 197°
2026-04-22 02:16 48.46483 11.06875 35826 ft 464 kts 197°
2026-04-22 02:16 48.43392 11.05653 35479 ft 468 kts 197°
2026-04-22 02:16 48.40232 11.04406 35122 ft 469 kts 197°
2026-04-22 02:16 48.37114 11.03180 34768 ft 465 kts 197°
2026-04-22 02:17 48.34014 11.01963 34411 ft 461 kts 197°
2026-04-22 02:17 48.30972 11.00773 34051 ft 458 kts 197°
2026-04-22 02:17 48.27913 10.99576 33739 ft 455 kts 197°
2026-04-22 02:17 48.24876 10.98389 33418 ft 453 kts 197°
2026-04-22 02:18 48.21847 10.97206 33106 ft 451 kts 197°
2026-04-22 02:18 48.18912 10.96060 32799 ft 448 kts 197°
2026-04-22 02:18 48.15919 10.94893 32473 ft 444 kts 197°
2026-04-22 02:18 48.12920 10.93725 32155 ft 440 kts 196°
2026-04-22 02:19 48.09986 10.92585 31836 ft 437 kts 196°
2026-04-22 02:19 48.07076 10.91455 31479 ft 435 kts 196°
2026-04-22 02:19 48.04179 10.90330 31108 ft 433 kts 196°
2026-04-22 02:19 48.01289 10.89210 30742 ft 430 kts 196°
2026-04-22 02:20 47.98406 10.88094 30363 ft 428 kts 196°
2026-04-22 02:20 47.95568 10.86996 29974 ft 425 kts 196°
2026-04-22 02:20 47.92747 10.85907 29586 ft 422 kts 196°
2026-04-22 02:20 47.89946 10.84826 29210 ft 420 kts 196°
2026-04-22 02:21 47.87193 10.83765 28834 ft 416 kts 196°
2026-04-22 02:21 47.84450 10.82709 28454 ft 414 kts 195°
2026-04-22 02:21 47.81649 10.81632 28054 ft 414 kts 196°
2026-04-22 02:21 47.78838 10.80549 27677 ft 434 kts 196°
2026-04-22 02:22 47.75928 10.79429 27294 ft 438 kts 195°
2026-04-22 02:22 47.72987 10.78301 26897 ft 434 kts 195°
2026-04-22 02:22 47.70101 10.77198 26497 ft 432 kts 196°
2026-04-22 02:22 47.67231 10.76103 26121 ft 430 kts 196°
2026-04-22 02:23 47.64338 10.75000 25722 ft 426 kts 196°
2026-04-22 02:23 47.61494 10.73917 25319 ft 423 kts 195°
2026-04-22 02:23 47.58651 10.72835 24897 ft 421 kts 196°
2026-04-22 02:23 47.55832 10.71763 24482 ft 419 kts 197°
2026-04-22 02:24 47.53039 10.70702 24058 ft 416 kts 196°
2026-04-22 02:24 47.50250 10.69643 23620 ft 413 kts 196°
2026-04-22 02:24 47.47489 10.68596 23182 ft 410 kts 196°
2026-04-22 02:24 47.44743 10.67556 22733 ft 407 kts 196°
2026-04-22 02:25 47.42003 10.66520 22296 ft 405 kts 196°
2026-04-22 02:25 47.39304 10.65500 21840 ft 401 kts 197°
2026-04-22 02:25 47.36593 10.64475 21405 ft 397 kts 197°
2026-04-22 02:25 47.33943 10.63475 20970 ft 395 kts 197°
2026-04-22 02:26 47.31291 10.62476 20544 ft 387 kts 197°
2026-04-22 02:26 47.28744 10.61518 20175 ft 378 kts 197°
2026-04-22 02:26 47.26208 10.60566 19814 ft 370 kts 197°
2026-04-22 02:26 47.23739 10.59640 19498 ft 361 kts 197°
2026-04-22 02:27 47.21370 10.58752 19179 ft 353 kts 197°
2026-04-22 02:27 47.18998 10.57864 18860 ft 345 kts 197°
2026-04-22 02:27 47.16724 10.57010 18545 ft 338 kts 197°
2026-04-22 02:27 47.14450 10.56156 18226 ft 331 kts 197°
2026-04-22 02:28 47.12257 10.55331 17906 ft 325 kts 197°
2026-04-22 02:28 47.10061 10.54508 17579 ft 321 kts 197°
2026-04-22 02:28 47.07923 10.53689 17260 ft 318 kts 199°
2026-04-22 02:28 47.05852 10.52648 16940 ft 314 kts 206°
2026-04-22 02:29 47.03922 10.51209 16645 ft 310 kts 214°
2026-04-22 02:29 47.02102 10.49517 16383 ft 308 kts 217°
2026-04-22 02:29 47.00351 10.47767 16124 ft 307 kts 218°
2026-04-22 02:29 46.98584 10.45988 15863 ft 305 kts 218°
2026-04-22 02:30 46.96851 10.44264 15605 ft 304 kts 218°
2026-04-22 02:30 46.95092 10.42536 15341 ft 302 kts 217°
2026-04-22 02:30 46.93355 10.40838 15085 ft 301 kts 217°
2026-04-22 02:30 46.91620 10.39151 14845 ft 299 kts 217°
2026-04-22 02:31 46.89891 10.37474 14632 ft 299 kts 217°
2026-04-22 02:31 46.88155 10.35791 14397 ft 298 kts 217°
2026-04-22 02:31 46.86440 10.34131 14164 ft 294 kts 217°
2026-04-22 02:31 46.84776 10.32522 13919 ft 284 kts 217°
2026-04-22 02:32 46.83150 10.30955 13685 ft 271 kts 216°
2026-04-22 02:32 46.81619 10.29477 13453 ft 260 kts 217°
2026-04-22 02:32 46.80143 10.28049 13221 ft 250 kts 216°
2026-04-22 02:32 46.78737 10.26682 12990 ft 238 kts 218°
2026-04-22 02:33 46.77529 10.25158 12735 ft 223 kts 232°
2026-04-22 02:33 46.76659 10.23339 12474 ft 210 kts 242°
2026-04-22 02:33 46.75919 10.21568 12214 ft 202 kts 240°
2026-04-22 02:33 46.75180 10.19883 11953 ft 194 kts 240°
2026-04-22 02:34 46.74447 10.18277 11696 ft 188 kts 239°
2026-04-22 02:34 46.73734 10.16727 11443 ft 183 kts 239°
2026-04-22 02:34 46.73024 10.15203 11187 ft 182 kts 236°
2026-04-22 02:34 46.72163 10.13836 10938 ft 184 kts 225°
2026-04-22 02:35 46.71229 10.12582 10673 ft 179 kts 225°
2026-04-22 02:35 46.70334 10.11327 10457 ft 180 kts 226°
2026-04-22 02:35 46.69449 10.10069 10198 ft 172 kts 226°
2026-04-22 02:35 46.68599 10.08866 9952 ft 168 kts 225°
2026-04-22 02:36 46.67765 10.07683 9698 ft 168 kts 225°
2026-04-22 02:36 46.66936 10.06502 9445 ft 167 kts 226°
2026-04-22 02:36 46.66116 10.05332 9191 ft 166 kts 225°
2026-04-22 02:36 46.65288 10.04155 8936 ft 166 kts 225°
2026-04-22 02:37 46.64473 10.02997 8684 ft 164 kts 225°
2026-04-22 02:37 46.63658 10.01833 8430 ft 164 kts 225°
2026-04-22 02:37 46.62858 10.00687 8182 ft 162 kts 225°
2026-04-22 02:37 46.62078 9.99581 7932 ft 151 kts 224°
2026-04-22 02:38 46.61330 9.98516 7679 ft 150 kts 225°
2026-04-22 02:38 46.60578 9.97458 7427 ft 149 kts 225°
2026-04-22 02:38 46.59844 9.96419 7219 ft 148 kts 224°
2026-04-22 02:38 46.59110 9.95378 7016 ft 147 kts 224°
2026-04-22 02:39 46.58378 9.94341 6813 ft 146 kts 224°
2026-04-22 02:39 46.57676 9.93281 6606 ft 146 kts 227°
2026-04-22 02:39 46.57009 9.92180 6343 ft 146 kts 227°
2026-04-22 02:39 46.56302 9.91145 6130 ft 143 kts 220°
2026-04-22 02:40 46.55513 9.90276 6035 ft 144 kts 214°
2026-04-22 02:40 46.54688 9.89486 5732 ft 145 kts 212°
2026-04-22 02:40 46.53889 9.88774 5540 ft 134 kts 209°
2026-04-22 02:40 46.53283 9.88278 5550 ft 59 kts 207°
2026-04-22 02:41 46.53089 9.88124 5555 ft 14 kts 209°
2026-04-22 02:41 46.53013 9.88064 5556 ft 10 kts 208°
2026-04-22 02:41 46.52986 9.88037 5557 ft 2 kts 229°
2026-04-22 02:41 46.52980 9.88021 5557 ft 1 kts 258°
2026-04-22 02:42 46.52980 9.88014 5557 ft 0 kts 272°
2026-04-22 02:42 46.52981 9.88011 5557 ft 0 kts 281°
2026-04-22 02:42 46.52984 9.87999 5558 ft 0 kts 292°
2026-04-22 02:43 46.52988 9.87987 5558 ft 4 kts 293°
2026-04-22 02:43 46.53002 9.87955 5558 ft 2 kts 328°
2026-04-22 02:44 46.53020 9.87951 5558 ft 3 kts 359°
2026-04-22 02:44 46.53048 9.87952 5558 ft 5 kts
2026-04-22 02:44 46.53073 9.87977 5557 ft 3 kts 63°
2026-04-22 02:44 46.53074 9.87981 5557 ft 0 kts 66°